| time (UTC) | temp F | wind direction | speed MPH | gust MPH | rain 1hr in | rain 24hr in | rain mn in | humidity % | barometer mb |
| 20260509135504 | 61 | 158 | 0.0 | 2.0 | 0.00 | 0.00 | 0.00 | 60 | 1007.6 |
| 20260509135003 | 60 | 136 | 0.0 | 2.0 | 0.00 | 0.00 | 0.00 | 61 | 1007.7 |
| 20260509134508 | 58 | 34 | 0.0 | 2.0 | 0.00 | 0.00 | 0.00 | 62 | 1007.6 |
| 20260509134003 | 58 | 0 | 0.0 | 0.0 | 0.00 | 0.00 | 0.00 | 66 | 1007.6 |
| 20260509133504 | 57 | 0 | 0.0 | 0.0 | 0.00 | 0.00 | 0.00 | 66 | 1007.4 |
| 20260509133008 | 56 | 0 | 0.0 | 0.0 | 0.00 | 0.00 | 0.00 | 68 | 1007.5 |
| 20260509132003 | 55 | 0 | 0.0 | 0.0 | 0.00 | 0.00 | 0.00 | 69 | 1007.4 |
| 20260509131508 | 54 | 0 | 0.0 | 0.0 | 0.00 | 0.00 | 0.00 | 70 | 1007.5 |
| 20260509130503 | 52 | 0 | 0.0 | 0.0 | 0.00 | 0.00 | 0.00 | 72 | 1007.5 |
| 20260509130008 | 51 | 0 | 0.0 | 0.0 | 0.00 | 0.00 | 0.00 | 74 | 1007.5 |
| 20260509125004 | 49 | 0 | 0.0 | 0.0 | 0.00 | 0.00 | 0.00 | 79 | 1007.5 |
| 20260509124508 | 48 | 0 | 0.0 | 0.0 | 0.00 | 0.00 | 0.00 | 81 | 1007.4 |
| 20260509124004 | 48 | 0 | 0.0 | 0.0 | 0.00 | 0.00 | 0.00 | 82 | 1007.5 |
| 20260509123503 | 47 | 0 | 0.0 | 0.0 | 0.00 | 0.00 | 0.00 | 83 | 1007.5 |
| 20260509123008 | 46 | 0 | 0.0 | 0.0 | 0.00 | 0.00 | 0.00 | 84 | 1007.5 |
| 20260509122503 | 46 | 0 | 0.0 | 0.0 | 0.00 | 0.00 | 0.00 | 85 | 1007.3 |
| 20260509122003 | 45 | 0 | 0.0 | 0.0 | 0.00 | 0.00 | 0.00 | 84 | 1007.3 |
| 20260509121508 | 44 | 0 | 0.0 | 0.0 | 0.00 | 0.00 | 0.00 | 85 | 1007.4 |
| 20260509121004 | 44 | 0 | 0.0 | 0.0 | 0.00 | 0.00 | 0.00 | 85 | 1007.3 |
| 20260509115503 | 44 | 0 | 0.0 | 0.0 | 0.00 | 0.00 | 0.00 | 84 | 1007.3 |
| 20260509115003 | 44 | 0 | 0.0 | 0.0 | 0.00 | 0.00 | 0.00 | 84 | 1007.2 |
| 20260509114510 | 44 | 0 | 0.0 | 0.0 | 0.00 | 0.00 | 0.00 | 84 | 1007.0 |
| 20260509114004 | 44 | 0 | 0.0 | 0.0 | 0.00 | 0.00 | 0.00 | 84 | 1007.0 |
| 20260509113503 | 44 | 0 | 0.0 | 0.0 | 0.00 | 0.00 | 0.00 | 84 | 1007.0 |
| 20260509113008 | 44 | 0 | 0.0 | 0.0 | 0.00 | 0.00 | 0.00 | 82 | 1006.9 |
| 20260509112503 | 44 | 0 | 0.0 | 0.0 | 0.00 | 0.00 | 0.00 | 82 | 1006.9 |
| 20260509112004 | 44 | 0 | 0.0 | 0.0 | 0.00 | 0.00 | 0.00 | 82 | 1006.9 |
| 20260509111003 | 44 | 0 | 0.0 | 0.0 | 0.00 | 0.00 | 0.00 | 82 | 1006.8 |
| 20260509110008 | 44 | 0 | 0.0 | 0.0 | 0.00 | 0.00 | 0.00 | 81 | 1006.8 |
| 20260509105504 | 44 | 0 | 0.0 | 0.0 | 0.00 | 0.00 | 0.00 | 81 | 1006.8 |
| 20260509105003 | 44 | 0 | 0.0 | 0.0 | 0.00 | 0.00 | 0.00 | 81 | 1006.8 |
| 20260509104508 | 44 | 0 | 0.0 | 0.0 | 0.00 | 0.00 | 0.00 | 82 | 1006.8 |
| 20260509104003 | 44 | 0 | 0.0 | 0.0 | 0.00 | 0.00 | 0.00 | 82 | 1006.9 |
| 20260509103505 | 44 | 0 | 0.0 | 0.0 | 0.00 | 0.00 | 0.00 | 81 | 1007.0 |
| 20260509103009 | 44 | 0 | 0.0 | 0.0 | 0.00 | 0.00 | 0.00 | 81 | 1006.9 |
| 20260509102504 | 44 | 0 | 0.0 | 0.0 | 0.00 | 0.00 | 0.00 | 81 | 1006.8 |
| 20260509102004 | 44 | 0 | 0.0 | 0.0 | 0.00 | 0.00 | 0.00 | 80 | 1006.8 |
| 20260509101508 | 44 | 0 | 0.0 | 0.0 | 0.00 | 0.00 | 0.00 | 80 | 1006.8 |
| 20260509101003 | 44 | 0 | 0.0 | 0.0 | 0.00 | 0.00 | 0.00 | 80 | 1006.8 |
| 20260509100503 | 44 | 0 | 0.0 | 0.0 | 0.00 | 0.00 | 0.00 | 80 | 1006.8 |
| 20260509100009 | 45 | 0 | 0.0 | 0.0 | 0.00 | 0.00 | 0.00 | 79 | 1006.9 |
| 20260509095503 | 45 | 0 | 0.0 | 0.0 | 0.00 | 0.00 | 0.00 | 79 | 1006.8 |
| 20260509095003 | 45 | 0 | 0.0 | 0.0 | 0.00 | 0.00 | 0.00 | 78 | 1006.9 |
| 20260509094508 | 45 | 0 | 0.0 | 0.0 | 0.00 | 0.00 | 0.00 | 78 | 1006.8 |
| 20260509094003 | 45 | 0 | 0.0 | 0.0 | 0.00 | 0.00 | 0.00 | 77 | 1006.9 |
| 20260509093505 | 45 | 0 | 0.0 | 0.0 | 0.00 | 0.00 | 0.00 | 77 | 1006.9 |
| 20260509093008 | 45 | 0 | 0.0 | 0.0 | 0.00 | 0.00 | 0.00 | 77 | 1006.9 |
| 20260509092503 | 45 | 0 | 0.0 | 0.0 | 0.00 | 0.00 | 0.00 | 78 | 1006.9 |
| 20260509092004 | 45 | 0 | 0.0 | 0.0 | 0.00 | 0.00 | 0.00 | 78 | 1006.9 |
| 20260509091508 | 45 | 0 | 0.0 | 0.0 | 0.00 | 0.00 | 0.00 | 77 | 1006.8 |
| 20260509091003 | 46 | 0 | 0.0 | 0.0 | 0.00 | 0.00 | 0.00 | 76 | 1006.9 |
| 20260509090505 | 46 | 0 | 0.0 | 0.0 | 0.00 | 0.00 | 0.00 | 75 | 1006.8 |
| 20260509090008 | 46 | 0 | 0.0 | 0.0 | 0.00 | 0.00 | 0.00 | 75 | 1006.8 |
| 20260509085503 | 46 | 0 | 0.0 | 0.0 | 0.00 | 0.00 | 0.00 | 76 | 1006.7 |
| 20260509085004 | 47 | 0 | 0.0 | 0.0 | 0.00 | 0.00 | 0.00 | 73 | 1006.7 |
| 20260509084508 | 47 | 0 | 0.0 | 0.0 | 0.00 | 0.00 | 0.00 | 73 | 1006.7 |
| 20260509084003 | 47 | 0 | 0.0 | 0.0 | 0.00 | 0.00 | 0.00 | 72 | 1006.7 |
| 20260509083504 | 48 | 0 | 0.0 | 0.0 | 0.00 | 0.00 | 0.00 | 72 | 1006.6 |
| 20260509083009 | 48 | 0 | 0.0 | 0.0 | 0.00 | 0.00 | 0.00 | 72 | 1006.6 |
| 20260509082503 | 48 | 0 | 0.0 | 0.0 | 0.00 | 0.00 | 0.00 | 71 | 1006.7 |
| 20260509081508 | 49 | 0 | 0.0 | 0.0 | 0.00 | 0.00 | 0.00 | 69 | 1006.6 |
| 20260509081004 | 49 | 0 | 0.0 | 0.0 | 0.00 | 0.00 | 0.00 | 68 | 1006.7 |
| 20260509080503 | 50 | 0 | 0.0 | 0.0 | 0.00 | 0.00 | 0.00 | 68 | 1006.6 |
| 20260509080008 | 50 | 0 | 0.0 | 0.0 | 0.00 | 0.00 | 0.00 | 67 | 1006.6 |
| 20260509075504 | 50 | 0 | 0.0 | 0.0 | 0.00 | 0.00 | 0.00 | 67 | 1006.7 |
| 20260509075004 | 50 | 0 | 0.0 | 0.0 | 0.00 | 0.00 | 0.00 | 66 | 1006.6 |
| 20260509074508 | 51 | 0 | 0.0 | 0.0 | 0.00 | 0.00 | 0.00 | 66 | 1006.8 |
| 20260509074003 | 51 | 0 | 0.0 | 0.0 | 0.00 | 0.00 | 0.00 | 65 | 1006.8 |
| 20260509073504 | 52 | 0 | 0.0 | 0.0 | 0.00 | 0.00 | 0.00 | 63 | 1006.7 |
| 20260509073009 | 52 | 0 | 0.0 | 0.0 | 0.00 | 0.00 | 0.00 | 63 | 1006.8 |
| 20260509072503 | 53 | 0 | 0.0 | 0.0 | 0.00 | 0.00 | 0.00 | 64 | 1006.7 |
| 20260509072003 | 53 | 0 | 0.0 | 0.0 | 0.00 | 0.00 | 0.00 | 60 | 1006.7 |
| 20260509071508 | 54 | 0 | 0.0 | 0.0 | 0.00 | 0.00 | 0.00 | 61 | 1006.8 |
| 20260509071003 | 54 | 0 | 0.0 | 0.0 | 0.00 | 0.00 | 0.00 | 59 | 1006.7 |
| 20260509070503 | 54 | 0 | 0.0 | 0.0 | 0.00 | 0.00 | 0.00 | 60 | 1006.8 |
| 20260509070008 | 54 | 0 | 0.0 | 0.0 | 0.00 | 0.00 | 0.00 | 60 | 1006.8 |
| 20260509065503 | 54 | 0 | 0.0 | 0.0 | 0.00 | 0.00 | 0.00 | 59 | 1006.9 |
| 20260509065004 | 55 | 0 | 0.0 | 0.0 | 0.00 | 0.00 | 0.00 | 58 | 1006.8 |
| 20260509064508 | 55 | 0 | 0.0 | 0.0 | 0.00 | 0.00 | 0.00 | 57 | 1006.9 |
| 20260509063504 | 56 | 0 | 0.0 | 0.0 | 0.00 | 0.00 | 0.00 | 55 | 1007.0 |
| 20260509063008 | 57 | 0 | 0.0 | 0.0 | 0.00 | 0.00 | 0.00 | 53 | 1007.0 |
| 20260509062504 | 58 | 0 | 0.0 | 0.0 | 0.00 | 0.00 | 0.00 | 53 | 1007.0 |
| 20260509062003 | 58 | 0 | 0.0 | 0.0 | 0.00 | 0.00 | 0.00 | 52 | 1007.0 |
| 20260509061508 | 58 | 356 | 0.0 | 1.0 | 0.00 | 0.00 | 0.00 | 51 | 1007.0 |
| 20260509061003 | 59 | 356 | 0.0 | 1.0 | 0.00 | 0.00 | 0.00 | 51 | 1006.9 |
| 20260509060503 | 59 | 356 | 0.0 | 1.0 | 0.00 | 0.00 | 0.00 | 50 | 1006.9 |
| 20260509060009 | 59 | 33 | 0.0 | 1.0 | 0.00 | 0.00 | 0.00 | 50 | 1006.9 |
| 20260509055003 | 60 | 33 | 0.0 | 1.0 | 0.00 | 0.00 | 0.00 | 49 | 1007.0 |
| 20260509054003 | 61 | 332 | 0.0 | 3.0 | 0.00 | 0.00 | 0.00 | 48 | 1006.9 |
| 20260509053009 | 61 | 355 | 0.0 | 3.0 | 0.00 | 0.00 | 0.00 | 48 | 1006.8 |
| 20260509052504 | 60 | 359 | 0.0 | 3.0 | 0.00 | 0.00 | 0.00 | 49 | 1006.8 |
| 20260509051508 | 59 | 356 | 0.0 | 3.0 | 0.00 | 0.00 | 0.00 | 52 | 1006.8 |
| 20260509051003 | 58 | 345 | 0.0 | 1.0 | 0.00 | 0.00 | 0.00 | 53 | 1006.8 |
| 20260509050505 | 58 | 345 | 0.0 | 1.0 | 0.00 | 0.00 | 0.00 | 54 | 1006.7 |
| 20260509050009 | 58 | 345 | 0.0 | 1.0 | 0.00 | 0.00 | 0.00 | 55 | 1006.5 |
| 20260509045504 | 58 | 345 | 0.0 | 1.0 | 0.00 | 0.00 | 0.00 | 54 | 1006.6 |
| 20260509044508 | 57 | 345 | 0.0 | 1.0 | 0.00 | 0.00 | 0.00 | 55 | 1006.5 |
| 20260509044003 | 57 | 345 | 0.0 | 1.0 | 0.00 | 0.00 | 0.00 | 57 | 1006.5 |
| 20260509043504 | 57 | 345 | 0.0 | 1.0 | 0.00 | 0.00 | 0.00 | 56 | 1006.5 |
| 20260509043009 | 57 | 345 | 0.0 | 1.0 | 0.00 | 0.00 | 0.00 | 58 | 1006.5 |
| 20260509042503 | 58 | 345 | 0.0 | 1.0 | 0.00 | 0.00 | 0.00 | 59 | 1006.4 |
| 20260509042003 | 58 | 0 | 0.0 | 0.0 | 0.00 | 0.00 | 0.00 | 57 | 1006.4 |
| 20260509041508 | 59 | 345 | 0.0 | 1.0 | 0.00 | 0.00 | 0.00 | 55 | 1006.3 |
| 20260509041003 | 59 | 345 | 0.0 | 1.0 | 0.00 | 0.00 | 0.00 | 55 | 1006.5 |
| 20260509040504 | 59 | 345 | 0.0 | 1.0 | 0.00 | 0.00 | 0.00 | 53 | 1006.4 |
| 20260509040008 | 59 | 345 | 0.0 | 1.0 | 0.00 | 0.00 | 0.00 | 54 | 1006.4 |
| 20260509035503 | 58 | 345 | 0.0 | 1.0 | 0.00 | 0.00 | 0.00 | 54 | 1006.4 |
| 20260509035005 | 59 | 0 | 0.0 | 0.0 | 0.00 | 0.00 | 0.00 | 56 | 1006.2 |
| 20260509034508 | 60 | 0 | 0.0 | 0.0 | 0.00 | 0.00 | 0.00 | 55 | 1006.2 |
| 20260509034005 | 60 | 0 | 0.0 | 0.0 | 0.00 | 0.00 | 0.00 | 54 | 1006.2 |
| 20260509033503 | 61 | 0 | 0.0 | 0.0 | 0.00 | 0.00 | 0.00 | 52 | 1006.1 |
| 20260509033008 | 61 | 345 | 0.0 | 1.0 | 0.00 | 0.00 | 0.00 | 49 | 1006.1 |
| 20260509032504 | 62 | 345 | 0.0 | 1.0 | 0.00 | 0.00 | 0.00 | 50 | 1006.1 |
| 20260509032004 | 62 | 345 | 0.0 | 1.0 | 0.00 | 0.00 | 0.00 | 46 | 1006.0 |
| 20260509031508 | 61 | 345 | 0.0 | 1.0 | 0.00 | 0.00 | 0.00 | 49 | 1006.0 |
| 20260509031003 | 62 | 0 | 0.0 | 0.0 | 0.00 | 0.00 | 0.00 | 48 | 1005.9 |
| 20260509030503 | 62 | 0 | 0.0 | 0.0 | 0.00 | 0.00 | 0.00 | 47 | 1005.8 |
| 20260509030008 | 62 | 0 | 0.0 | 0.0 | 0.00 | 0.00 | 0.00 | 47 | 1005.8 |
| 20260509025004 | 63 | 0 | 0.0 | 0.0 | 0.00 | 0.00 | 0.00 | 46 | 1005.5 |
| 20260509024003 | 64 | 0 | 0.0 | 0.0 | 0.00 | 0.00 | 0.00 | 43 | 1005.5 |
| 20260509023503 | 64 | 0 | 0.0 | 0.0 | 0.00 | 0.00 | 0.00 | 44 | 1005.5 |
| 20260509023008 | 64 | 0 | 0.0 | 0.0 | 0.00 | 0.00 | 0.00 | 43 | 1005.4 |
| 20260509022505 | 65 | 0 | 0.0 | 0.0 | 0.00 | 0.00 | 0.00 | 42 | 1005.3 |
| 20260509022003 | 65 | 0 | 0.0 | 0.0 | 0.00 | 0.00 | 0.00 | 41 | 1005.3 |
| 20260509021508 | 66 | 0 | 0.0 | 0.0 | 0.00 | 0.00 | 0.00 | 40 | 1005.2 |
| 20260509021003 | 67 | 0 | 0.0 | 0.0 | 0.00 | 0.00 | 0.00 | 40 | 1005.1 |
| 20260509020504 | 67 | 0 | 0.0 | 0.0 | 0.00 | 0.00 | 0.00 | 39 | 1005.1 |
| 20260509020008 | 68 | 0 | 0.0 | 0.0 | 0.00 | 0.00 | 0.00 | 38 | 1005.0 |
| 20260509015503 | 69 | 0 | 0.0 | 0.0 | 0.00 | 0.00 | 0.00 | 38 | 1005.0 |
| 20260509015003 | 69 | 345 | 0.0 | 1.0 | 0.00 | 0.00 | 0.00 | 38 | 1005.0 |
| 20260509014508 | 70 | 345 | 0.0 | 1.0 | 0.00 | 0.00 | 0.00 | 37 | 1004.9 |
| 20260509014004 | 71 | 345 | 0.0 | 1.0 | 0.00 | 0.00 | 0.00 | 35 | 1004.8 |
| 20260509013503 | 72 | 345 | 0.0 | 1.0 | 0.00 | 0.00 | 0.00 | 34 | 1004.8 |
| 20260509013008 | 73 | 345 | 0.0 | 1.0 | 0.00 | 0.00 | 0.00 | 32 | 1004.8 |
| 20260509012503 | 74 | 345 | 0.0 | 1.0 | 0.00 | 0.00 | 0.00 | 32 | 1004.7 |
| 20260509012004 | 74 | 328 | 0.0 | 2.0 | 0.00 | 0.00 | 0.00 | 32 | 1004.7 |
| 20260509011508 | 75 | 296 | 0.0 | 3.0 | 0.00 | 0.00 | 0.00 | 31 | 1004.6 |
| 20260509011003 | 75 | 294 | 1.0 | 3.0 | 0.00 | 0.00 | 0.00 | 30 | 1004.6 |
| 20260509005503 | 77 | 315 | 1.0 | 3.0 | 0.00 | 0.00 | 0.00 | 30 | 1004.5 |
| 20260509005004 | 78 | 310 | 1.0 | 7.0 | 0.00 | 0.00 | 0.00 | 29 | 1004.5 |
| 20260509004509 | 78 | 334 | 1.0 | 7.0 | 0.00 | 0.00 | 0.00 | 29 | 1004.5 |
| 20260509004003 | 78 | 341 | 1.0 | 6.0 | 0.00 | 0.00 | 0.00 | 29 | 1004.4 |
| 20260509003503 | 79 | 343 | 2.0 | 6.0 | 0.00 | 0.00 | 0.00 | 29 | 1004.4 |
| 20260509003009 | 79 | 11 | 2.0 | 9.0 | 0.00 | 0.00 | 0.00 | 28 | 1004.4 |
| 20260509002503 | 80 | 6 | 2.0 | 9.0 | 0.00 | 0.00 | 0.00 | 29 | 1004.4 |
| 20260509001508 | 80 | 307 | 2.0 | 7.0 | 0.00 | 0.00 | 0.00 | 29 | 1004.3 |
| 20260509001003 | 80 | 322 | 1.0 | 7.0 | 0.00 | 0.00 | 0.00 | 29 | 1004.3 |
| 20260509000504 | 80 | 327 | 1.0 | 4.0 | 0.00 | 0.00 | 0.00 | 30 | 1004.3 |
| 20260508235503 | 79 | 343 | 2.0 | 7.0 | 0.00 | 0.00 | 0.00 | 31 | 1004.3 |
| 20260508235005 | 79 | 334 | 1.0 | 6.0 | 0.00 | 0.00 | 0.00 | 31 | 1004.3 |
| 20260508234003 | 79 | 317 | 1.0 | 5.0 | 0.00 | 0.00 | 0.00 | 31 | 1004.4 |
| 20260508233503 | 78 | 321 | 2.0 | 7.0 | 0.00 | 0.00 | 0.00 | 31 | 1004.4 |
| 20260508233009 | 78 | 290 | 2.0 | 7.0 | 0.00 | 0.00 | 0.00 | 32 | 1004.5 |
| 20260508232504 | 77 | 224 | 2.0 | 5.0 | 0.00 | 0.00 | 0.00 | 33 | 1004.4 |
| 20260508232004 | 77 | 215 | 1.0 | 5.0 | 0.00 | 0.00 | 0.00 | 33 | 1004.4 |
| 20260508231508 | 77 | 235 | 1.0 | 7.0 | 0.00 | 0.00 | 0.00 | 33 | 1004.4 |
| 20260508231005 | 78 | 242 | 3.0 | 7.0 | 0.00 | 0.00 | 0.00 | 31 | 1004.5 |
| 20260508230008 | 78 | 237 | 3.0 | 7.0 | 0.00 | 0.00 | 0.00 | 32 | 1004.3 |
| 20260508225503 | 79 | 233 | 3.0 | 7.0 | 0.00 | 0.00 | 0.00 | 32 | 1004.3 |
| 20260508225003 | 79 | 233 | 2.0 | 10.0 | 0.00 | 0.00 | 0.00 | 31 | 1004.3 |
| 20260508224508 | 79 | 262 | 1.0 | 10.0 | 0.00 | 0.00 | 0.00 | 31 | 1004.4 |
| 20260508224004 | 79 | 300 | 1.0 | 6.0 | 0.00 | 0.00 | 0.00 | 30 | 1004.5 |
| 20260508223504 | 79 | 251 | 1.0 | 6.0 | 0.00 | 0.00 | 0.00 | 32 | 1004.6 |
| 20260508223008 | 79 | 232 | 1.0 | 4.0 | 0.00 | 0.00 | 0.00 | 32 | 1004.5 |
| 20260508222503 | 78 | 234 | 2.0 | 4.0 | 0.00 | 0.00 | 0.00 | 32 | 1004.6 |
| 20260508222003 | 78 | 234 | 2.0 | 5.0 | 0.00 | 0.00 | 0.00 | 32 | 1004.7 |
| 20260508221508 | 77 | 228 | 2.0 | 5.0 | 0.00 | 0.00 | 0.00 | 33 | 1004.7 |
| 20260508221003 | 77 | 202 | 3.0 | 6.0 | 0.00 | 0.00 | 0.00 | 33 | 1004.8 |
| 20260508220504 | 77 | 195 | 3.0 | 8.0 | 0.00 | 0.00 | 0.00 | 33 | 1004.9 |
| 20260508214508 | 77 | 188 | 2.0 | 5.0 | 0.00 | 0.00 | 0.00 | 36 | 1005.0 |
| 20260508214003 | 76 | 189 | 2.0 | 6.0 | 0.00 | 0.00 | 0.00 | 33 | 1005.1 |
| 20260508213008 | 77 | 216 | 2.0 | 4.0 | 0.00 | 0.00 | 0.00 | 34 | 1005.2 |
| 20260508212004 | 76 | 175 | 1.0 | 3.0 | 0.00 | 0.00 | 0.00 | 33 | 1005.3 |
| 20260508211508 | 77 | 205 | 1.0 | 4.0 | 0.00 | 0.00 | 0.00 | 33 | 1005.3 |
| 20260508211004 | 77 | 216 | 2.0 | 6.0 | 0.00 | 0.00 | 0.00 | 33 | 1005.4 |
| 20260508210504 | 77 | 199 | 2.0 | 6.0 | 0.00 | 0.00 | 0.00 | 33 | 1005.5 |
| 20260508210009 | 77 | 195 | 2.0 | 5.0 | 0.00 | 0.00 | 0.00 | 34 | 1005.5 |
| 20260508205503 | 77 | 240 | 1.0 | 3.0 | 0.00 | 0.00 | 0.00 | 32 | 1005.6 |
| 20260508205004 | 77 | 239 | 1.0 | 3.0 | 0.00 | 0.00 | 0.00 | 34 | 1005.8 |
| 20260508204508 | 77 | 337 | 1.0 | 5.0 | 0.00 | 0.00 | 0.00 | 32 | 1005.8 |
| 20260508204004 | 77 | 335 | 2.0 | 5.0 | 0.00 | 0.00 | 0.00 | 35 | 1005.9 |
| 20260508203503 | 78 | 298 | 2.0 | 6.0 | 0.00 | 0.00 | 0.00 | 31 | 1006.0 |
| 20260508203008 | 78 | 259 | 2.0 | 6.0 | 0.00 | 0.00 | 0.00 | 32 | 1006.1 |
| 20260508202505 | 78 | 216 | 3.0 | 4.0 | 0.00 | 0.00 | 0.00 | 32 | 1006.0 |
| 20260508202003 | 78 | 196 | 3.0 | 5.0 | 0.00 | 0.00 | 0.00 | 33 | 1006.0 |
| 20260508201508 | 78 | 197 | 2.0 | 5.0 | 0.00 | 0.00 | 0.00 | 33 | 1006.2 |
| 20260508201003 | 78 | 192 | 2.0 | 4.0 | 0.00 | 0.00 | 0.00 | 31 | 1006.2 |
| 20260508200008 | 78 | 191 | 2.0 | 6.0 | 0.00 | 0.00 | 0.00 | 31 | 1006.4 |
| 20260508195503 | 77 | 206 | 2.0 | 6.0 | 0.00 | 0.00 | 0.00 | 37 | 1006.6 |
| 20260508195004 | 76 | 215 | 2.0 | 3.0 | 0.00 | 0.00 | 0.00 | 31 | 1006.6 |
| 20260508194508 | 77 | 193 | 1.0 | 4.0 | 0.00 | 0.00 | 0.00 | 34 | 1006.7 |
| 20260508194004 | 77 | 192 | 2.0 | 6.0 | 0.00 | 0.00 | 0.00 | 32 | 1006.7 |
| 20260508193504 | 77 | 193 | 2.0 | 6.0 | 0.00 | 0.00 | 0.00 | 30 | 1006.8 |
| 20260508192504 | 77 | 205 | 1.0 | 3.0 | 0.00 | 0.00 | 0.00 | 31 | 1006.8 |
| 20260508192003 | 77 | 221 | 1.0 | 3.0 | 0.00 | 0.00 | 0.00 | 33 | 1006.8 |
| 20260508191509 | 77 | 206 | 1.0 | 2.0 | 0.00 | 0.00 | 0.00 | 31 | 1006.9 |
| 20260508191003 | 78 | 192 | 1.0 | 4.0 | 0.00 | 0.00 | 0.00 | 30 | 1006.9 |
| 20260508190504 | 78 | 190 | 2.0 | 5.0 | 0.00 | 0.00 | 0.00 | 29 | 1007.0 |
| 20260508190008 | 78 | 188 | 2.0 | 5.0 | 0.00 | 0.00 | 0.00 | 30 | 1007.1 |
| 20260508185504 | 78 | 191 | 2.0 | 5.0 | 0.00 | 0.00 | 0.00 | 30 | 1007.1 |
| 20260508184508 | 78 | 230 | 1.0 | 3.0 | 0.00 | 0.00 | 0.00 | 30 | 1007.2 |
| 20260508184003 | 77 | 203 | 2.0 | 7.0 | 0.00 | 0.00 | 0.00 | 31 | 1007.3 |
| 20260508183503 | 76 | 189 | 3.0 | 7.0 | 0.00 | 0.00 | 0.00 | 32 | 1007.2 |
| 20260508183008 | 76 | 187 | 2.0 | 5.0 | 0.00 | 0.00 | 0.00 | 31 | 1007.4 |
| 20260508182003 | 76 | 190 | 1.0 | 4.0 | 0.00 | 0.00 | 0.00 | 32 | 1007.6 |
| 20260508181508 | 76 | 193 | 1.0 | 4.0 | 0.00 | 0.00 | 0.00 | 32 | 1007.6 |
| 20260508181004 | 75 | 199 | 2.0 | 4.0 | 0.00 | 0.00 | 0.00 | 33 | 1007.7 |
| 20260508180503 | 75 | 195 | 2.0 | 6.0 | 0.00 | 0.00 | 0.00 | 38 | 1007.7 |
| 20260508180008 | 74 | 194 | 2.0 | 6.0 | 0.00 | 0.00 | 0.00 | 36 | 1007.7 |
| 20260508175504 | 74 | 200 | 1.0 | 3.0 | 0.00 | 0.00 | 0.00 | 35 | 1007.8 |
| 20260508175003 | 74 | 189 | 1.0 | 3.0 | 0.00 | 0.00 | 0.00 | 34 | 1007.9 |
| 20260508174508 | 74 | 165 | 1.0 | 2.0 | 0.00 | 0.00 | 0.00 | 35 | 1007.9 |
| 20260508173504 | 73 | 192 | 1.0 | 4.0 | 0.00 | 0.00 | 0.00 | 37 | 1008.0 |
| 20260508173009 | 73 | 195 | 2.0 | 4.0 | 0.00 | 0.00 | 0.00 | 35 | 1008.0 |
| 20260508172503 | 73 | 194 | 2.0 | 4.0 | 0.00 | 0.00 | 0.00 | 35 | 1008.1 |
| 20260508172003 | 73 | 192 | 2.0 | 4.0 | 0.00 | 0.00 | 0.00 | 37 | 1008.2 |
| 20260508171509 | 73 | 192 | 2.0 | 4.0 | 0.00 | 0.00 | 0.00 | 37 | 1008.2 |
| 20260508171003 | 73 | 201 | 0.0 | 3.0 | 0.00 | 0.00 | 0.00 | 38 | 1008.2 |
| 20260508170503 | 72 | 328 | 0.0 | 2.0 | 0.00 | 0.00 | 0.00 | 46 | 1008.3 |
| 20260508170009 | 72 | 349 | 0.0 | 1.0 | 0.00 | 0.00 | 0.00 | 40 | 1008.4 |
| 20260508165503 | 71 | 347 | 0.0 | 1.0 | 0.00 | 0.00 | 0.00 | 43 | 1008.3 |
| 20260508165004 | 70 | 347 | 0.0 | 1.0 | 0.00 | 0.00 | 0.00 | 43 | 1008.4 |
| 20260508164507 | 70 | 322 | 0.0 | 1.0 | 0.00 | 0.00 | 0.00 | 42 | 1008.4 |
| 20260508164003 | 70 | 326 | 0.0 | 1.0 | 0.00 | 0.00 | 0.00 | 41 | 1008.4 |
| 20260508163503 | 70 | 340 | 0.0 | 2.0 | 0.00 | 0.00 | 0.00 | 40 | 1008.4 |
| 20260508163008 | 70 | 339 | 0.0 | 2.0 | 0.00 | 0.00 | 0.00 | 41 | 1008.5 |
| 20260508162005 | 69 | 207 | 1.0 | 3.0 | 0.00 | 0.00 | 0.00 | 43 | 1008.4 |
| 20260508161508 | 69 | 189 | 1.0 | 3.0 | 0.00 | 0.00 | 0.00 | 43 | 1008.5 |
| 20260508161003 | 69 | 183 | 1.0 | 4.0 | 0.00 | 0.00 | 0.00 | 45 | 1008.5 |
| 20260508160503 | 68 | 196 | 2.0 | 6.0 | 0.00 | 0.00 | 0.00 | 46 | 1008.4 |
| 20260508160009 | 68 | 194 | 2.0 | 6.0 | 0.00 | 0.00 | 0.00 | 47 | 1008.4 |
| 20260508155503 | 67 | 190 | 2.0 | 4.0 | 0.00 | 0.00 | 0.00 | 47 | 1008.5 |
| 20260508155004 | 67 | 191 | 1.0 | 4.0 | 0.00 | 0.00 | 0.00 | 49 | 1008.5 |
| 20260508154508 | 66 | 182 | 1.0 | 2.0 | 0.00 | 0.00 | 0.00 | 51 | 1008.5 |
| 20260508154003 | 66 | 191 | 2.0 | 4.0 | 0.00 | 0.00 | 0.00 | 49 | 1008.6 |
| 20260508153503 | 65 | 192 | 2.0 | 4.0 | 0.00 | 0.00 | 0.00 | 50 | 1008.6 |
| 20260508153008 | 65 | 192 | 2.0 | 4.0 | 0.00 | 0.00 | 0.00 | 50 | 1008.6 |
| 20260508152504 | 64 | 184 | 2.0 | 4.0 | 0.00 | 0.00 | 0.00 | 51 | 1008.6 |
| 20260508152003 | 64 | 182 | 2.0 | 4.0 | 0.00 | 0.00 | 0.00 | 53 | 1008.7 |
| 20260508151508 | 64 | 187 | 1.0 | 4.0 | 0.00 | 0.00 | 0.00 | 51 | 1008.8 |
| 20260508151003 | 64 | 191 | 1.0 | 4.0 | 0.00 | 0.00 | 0.00 | 56 | 1008.8 |
| 20260508150008 | 63 | 184 | 2.0 | 4.0 | 0.00 | 0.00 | 0.00 | 57 | 1008.9 |
| 20260508145505 | 63 | 189 | 2.0 | 5.0 | 0.00 | 0.00 | 0.00 | 55 | 1008.7 |
| 20260508145003 | 62 | 192 | 2.0 | 5.0 | 0.00 | 0.00 | 0.00 | 57 | 1008.6 |
| 20260508144508 | 62 | 192 | 1.0 | 3.0 | 0.00 | 0.00 | 0.00 | 59 | 1008.7 |
| 20260508144005 | 61 | 190 | 1.0 | 3.0 | 0.00 | 0.00 | 0.00 | 56 | 1008.8 |
| 20260508143503 | 61 | 198 | 1.0 | 3.0 | 0.00 | 0.00 | 0.00 | 57 | 1008.9 |
| 20260508143008 | 61 | 207 | 1.0 | 3.0 | 0.00 | 0.00 | 0.00 | 58 | 1009.0 |
| 20260508142504 | 60 | 196 | 1.0 | 3.0 | 0.00 | 0.00 | 0.00 | 58 | 1009.0 |
| 20260508142004 | 60 | 187 | 2.0 | 3.0 | 0.00 | 0.00 | 0.00 | 59 | 1009.1 |
| 20260508141508 | 59 | 183 | 1.0 | 3.0 | 0.00 | 0.00 | 0.00 | 59 | 1009.1 |
| 20260508141003 | 58 | 346 | 0.0 | 2.0 | 0.00 | 0.00 | 0.00 | 61 | 1009.1 |
| 20260508140504 | 58 | 0 | 0.0 | 0.0 | 0.00 | 0.00 | 0.00 | 66 | 1009.0 |
| 20260508140008 | 57 | 0 | 0.0 | 0.0 | 0.00 | 0.00 | 0.00 | 68 | 1009.1 |